カタログに戻る

STARLINK-4254

運用中通信VLEO
NORAD 52998·PAYLOAD·🇺🇸 United States

打ち上げ Jul 7, 2022 から Cape Canaveral Space Force Station

Loading…

次のパス (今後24時間)

TLE

最新Source: CelesTrak SupGP

元期: Sep 14, 2026, 21:04 UTC

1 52998C 22076N   26257.87826389 -.00016408  00000+0 -48490-3 0  2578
2 52998  53.1582 309.6687 0001144  89.0862 202.1401 15.34390413    15

AllMySatでSTARLINK-4254をリアルタイム追跡

Download on the App Store